TimeCDT,TemperatureF,Dew PointF,Humidity,Sea Level PressureIn,VisibilityMPH,Wind Direction,Wind SpeedMPH,Gust SpeedMPH,PrecipitationIn,Events,Conditions,WindDirDegrees,DateUTC
12:53 AM,64.9,61.0,87,30.04,10.0,Calm,Calm,-,N/A,,Clear,0,2013-05-16 05:53:00
1:53 AM,64.9,61.0,87,30.02,9.0,Calm,Calm,-,N/A,,Clear,0,2013-05-16 06:53:00
3:53 AM,63.0,60.1,90,30.02,10.0,Calm,Calm,-,N/A,,Clear,0,2013-05-16 08:53:00
4:53 AM,63.0,60.1,90,30.03,9.0,Calm,Calm,-,N/A,,Clear,0,2013-05-16 09:53:00
5:53 AM,63.0,60.1,90,30.04,9.0,Calm,Calm,-,N/A,,Clear,0,2013-05-16 10:53:00
6:53 AM,64.0,60.1,87,30.07,10.0,WSW,5.8,-,N/A,,Clear,240,2013-05-16 11:53:00
7:53 AM,68.0,60.1,76,30.07,8.0,West,3.5,-,N/A,,Partly Cloudy,260,2013-05-16 12:53:00
8:53 AM,69.1,60.1,73,30.09,10.0,WSW,6.9,-,N/A,,Clear,240,2013-05-16 13:53:00
9:53 AM,73.0,57.9,59,30.08,10.0,Variable,3.5,-,N/A,,Clear,0,2013-05-16 14:53:00
10:53 AM,77.0,55.9,48,30.07,10.0,SW,5.8,-,N/A,,Clear,230,2013-05-16 15:53:00
11:53 AM,79.0,54.0,42,30.05,10.0,Variable,3.5,-,N/A,,Clear,0,2013-05-16 16:53:00
1:53 PM,80.1,54.0,40,30.02,10.0,SW,8.1,-,N/A,,Clear,230,2013-05-16 18:53:00
2:53 PM,81.0,54.0,39,30.01,10.0,SW,10.4,-,N/A,,Clear,230,2013-05-16 19:53:00
3:53 PM,81.0,50.0,34,29.99,10.0,South,5.8,-,N/A,,Clear,190,2013-05-16 20:53:00
4:53 PM,81.0,53.1,38,29.99,10.0,SW,4.6,-,N/A,,Clear,220,2013-05-16 21:53:00
5:53 PM,79.0,55.9,45,29.98,10.0,SW,4.6,-,N/A,,Clear,220,2013-05-16 22:53:00
6:53 PM,75.9,59.0,56,29.99,10.0,South,3.5,-,N/A,,Clear,190,2013-05-16 23:53:00
8:53 PM,70.0,60.1,71,30.01,10.0,Calm,Calm,-,N/A,,Clear,0,2013-05-17 01:53:00
9:53 PM,68.0,61.0,78,30.02,10.0,Calm,Calm,-,N/A,,Clear,0,2013-05-17 02:53:00
10:53 PM,66.0,60.1,81,30.01,10.0,Calm,Calm,-,N/A,,Clear,0,2013-05-17 03:53:00
11:53 PM,66.0,61.0,84,30.01,10.0,Calm,Calm,-,N/A,,Clear,0,2013-05-17 04:53:00